Location: Madrid
(40.4000°N, 3.6830°W)
Time: 01:43:07
(UTC+02:00)

ISS - Pass Details

Date: 20 July 2019
Orbit: 409 x 418 km, 51.6° (Epoch: 23 July)

Event Time Altitude Azimuth Distance (km) Brightness Sun altitude
Rises 22:56:49 0° 257° (WSW) 2,348 0.6 -12.7°
Reaches altitude 10° 22:59:04 10° 268° (W) 1,486 -0.3 -13.0°
Maximum altitude 23:02:05 31° 333° (NNW) 756 -1.7 -13.4°
Drops below altitude 10° 23:05:06 10° 37° (NE) 1,487 -0.9 -13.9°
Sets 23:07:21 0° 49° (NE) 2,350 0.0 -14.2°
